sat.trackr.live / text

‹ back to catalog

STARLINK-34957

NORAD 65388 · 2025-191K

PAYLOAD ACTIVE UNKNOWN

§ Identity

Operator
Country
US
Launch date
2025-08-30
Launch site
AFWTR
Launch vehicle
Mass (kg)
RCS (m²)

Purposes: comms

External: N2YO · Heavens-Above · Gunter

§ Orbital elements

Epoch: 2026-05-25T02:48:08.707680Z

Period
95.64 min
Inclination
97.4533°
Eccentricity
0.0002041
Mean motion
15.05658704 rev/d
Perigee alt
548.1 km
Apogee alt
550.9 km
Semi-major
6,927.6 km
B*
2.6241e-4
RAAN
16.5472°
Arg perigee
86.9661°
Mean anomaly
273.1799°
Rev number
4,177

§ Raw data

STARLINK-349571 65388U 25191K   26145.11676745  .00003730  00000+0  26241-3 0  99932 65388  97.4533  16.5472 0002041  86.9661 273.1799 15.05658704 41779

JSON: /api/v1/satellites/65388 · /tle

For live sub-satellite position, see the globe view (requires WebGL).

§ Visibility from observer

Set your observer location to see the next 7 days of passes ≥ 10°. The values pass through the URL so the page stays shareable.

No JS? Fill the form by hand. The geolocation button needs JavaScript.